Location: Pinhey's Point
(45.4411°N, 75.9539°W)
Time: 14:01:42
(UTC-04:00)

Daily predictions for brighter satellites

Satellite Brightness Start Highest point End
(mag) Time Altitude Azimuth Time Altitude Azimuth Time Altitude Azimuth
Cosmos 1975 4.3 20:22:41 10° SE 20:25:36 19° E 20:28:31 10° NE
Cosmos 1656 Rocket 4.1 20:21:19 10° SSW 20:26:54 71° WNW 20:32:26 10° NNE
Cosmos 1570 Rocket 4.3 20:24:18 10° S 20:29:17 44° ESE 20:34:18 10° NNE
Meteor 2-4 Rocket 4.0 20:26:58 10° NNW 20:32:48 80° W 20:38:42 10° S
Cosmos 1461 3.2 20:29:11 10° NNW 20:33:13 51° NE 20:37:06 10° SE
Resurs 01 Rocket 3.2 20:29:56 10° SSW 20:34:03 38° W 20:38:13 10° NNW
Lacrosse 5 rocket 1.7 20:30:33 10° NW 20:34:11 43° NNE 20:37:38 10° ESE
Cosmos 1934 Rocket 4.0 20:28:40 10° S 20:34:42 65° E 20:40:52 10° NNE
Envisat 3.9 20:31:44 10° SE 20:36:09 31° ENE 20:40:34 10° N
Cosmos 1315 Rocket 3.6 20:33:13 10° SSW 20:37:09 57° WNW 20:41:10 10° N
Cosmos 2278 4.0 20:35:29 10° S 20:40:49 44° ESE 20:46:12 10° NE
Cosmos 1697 Rocket 4.1 20:38:04 10° SE 20:41:34 17° E 20:45:04 10° ENE
Tiangong 1 1.6 20:39:20 10° WSW 20:42:16 40° S 20:44:50 13° E
DELTA 2 R/B (1) 4.0 20:38:52 10° WSW 20:44:11 47° S 20:49:03 12° ESE
CZ-4 DEB 3.3 20:42:15 10° SE 20:45:12 39° ENE 20:48:11 10° N
USA 186 1.9 20:46:15 10° S 20:49:22 70° WSW 20:52:20 10° NNW
OTV 4 2.3 20:48:35 10° SW 20:50:47 19° S 20:52:22 13° SE
H-2A R/B 3.2 20:47:20 10° S 20:51:10 64° W 20:55:05 10° NNW
Cosmos 2369 3.9 20:48:15 10° S 20:53:41 50° ESE 20:59:11 10° NE
Cosmos 2084 4.4 20:50:11 10° NNW 20:53:48 32° NE 20:56:46 14° E
Iridium 4 Rocket 3.7 20:49:17 10° N 20:54:25 49° E 20:59:04 10° SSE
EP 2 4.2 20:52:49 10° SW 20:55:24 85° ESE 20:58:19 10° NE
ATLAS CENTAUR R/B 3.6 20:50:49 10° WSW 20:55:26 36° NW 20:59:57 10° NNE
Cosmos 220 Rocket 4.4 20:51:34 10° N 20:55:39 45° ENE 20:58:52 15° SE
Cosmos 1939 Rocket 3.4 20:52:33 11° SE 20:56:13 43° ENE 21:00:11 10° N
Cosmos 1544 Rocket 3.9 20:52:22 10° SSW 20:56:44 72° W 21:01:10 10° N
SJ-11-01 4.3 20:58:12 10° SSE 21:02:53 71° ENE 21:07:33 10° N
Cosmos 1980 Rocket 3.7 21:02:28 15° ESE 21:03:14 16° E 21:06:28 10° ENE
NOSS 2-1 (D) 4.1 21:06:39 10° SW 21:10:32 59° NW 21:15:07 10° NNE
ARGOS 4.4 21:08:01 16° ESE 21:10:51 25° ENE 21:15:09 10° N
Cosmos 1898 Rocket 3.9 21:05:52 10° NNW 21:11:03 49° ENE 21:14:34 19° SE
NOSS 2-1 (C) 4.1 21:07:39 10° SW 21:11:33 60° NW 21:16:09 10° NNE
ERS-1 Rocket 2.9 21:07:44 10° SSE 21:12:45 82° ENE 21:17:48 10° NNW
Cosmos 1346 Rocket 3.9 21:12:32 10° NNW 21:16:17 43° W 21:20:03 10° SSW
Cosmos 1605 Rocket 4.1 21:11:19 10° S 21:17:40 85° W 21:23:59 10° N
Cosmos 2061 Rocket 4.4 21:15:45 12° SSE 21:21:14 42° E 21:27:05 10° NNE
RESURS DK-1 3.4 21:17:56 10° N 21:21:42 32° NE 21:23:22 24° E
Cosmos 2100 Rocket 4.2 21:17:35 10° SSE 21:23:35 48° E 21:29:32 10° NNE
Cosmos 2227 Rocket 2.7 21:21:40 10° NNW 21:27:14 58° WSW 21:32:23 12° S
Cosmos 2263 Rocket 4.3 21:27:18 10° N 21:29:50 13° NE 21:32:23 10° ENE
MetOp-B 4.3 21:28:49 24° SE 21:31:55 54° ENE 21:37:08 10° N
Cosmos 468 Rocket 4.1 21:29:57 10° S 21:34:51 48° ESE 21:39:46 10° NNE
Cosmos 1825 Rocket 3.9 21:32:26 10° N 21:36:46 48° ENE 21:38:16 34° SE
Cosmos 1500 3.0 21:34:20 20° S 21:36:50 75° E 21:40:37 10° NNE
Cosmos 2082 4.4 21:34:24 10° NW 21:39:49 49° WSW 21:44:32 13° S
BREEZE-M DEB (TANK) 4.0 21:26:32 10° SW 21:40:10 52° SSE 21:42:56 25° E
Cosmos 1814 Rocket 4.2 21:37:53 16° S 21:41:51 47° ESE 21:46:57 10° NNE
Cosmos 1656 3.6 21:36:37 10° SSW 21:42:12 69° ESE 21:47:45 10° NNE
Cosmos 972 Rocket 4.4 21:37:15 10° NNW 21:43:01 73° ENE 21:46:40 27° SSE
Cosmos 2297 Rocket 2.6 21:37:32 10° NNW 21:43:06 60° WSW 21:47:09 19° S
Cosmos 1953 Rocket 4.0 21:40:45 10° N 21:45:00 43° ENE 21:45:59 37° ESE
USA 215 3.5 21:42:02 23° ESE 21:46:12 62° NNE 21:52:38 10° NW
Lacrosse 5 1.9 21:44:33 10° NW 21:49:38 70° NE 21:51:36 37° ESE
Cosmos 1340 2.8 21:47:24 10° N 21:51:08 52° ENE 21:51:29 50° E
H-2A R/B 2.1 21:49:23 30° S 21:51:21 71° WSW 21:55:30 10° NNW
deb Chang Zheng 4 3.6 21:49:10 10° NNE 21:53:40 89° E 21:57:05 17° SSW
SPOT 5 2.9 21:52:32 28° S 21:55:17 84° WSW 22:00:11 10° NNW
Cosmos 2298 Rocket 4.3 21:52:47 10° NNW 21:58:03 64° WSW 22:00:55 27° S
Cosmos 1725 Rocket 4.4 21:57:36 34° SE 21:59:15 41° E 22:05:02 10° NNE
Cosmos 1975 4.4 21:58:03 10° SW 22:01:51 36° WNW 22:05:42 10° N
Cosmos 1459 Rocket 3.9 21:59:01 14° S 22:04:17 90° W 22:10:25 10° N
Cosmos 1758 Rocket 3.5 22:00:00 10° N 22:04:20 58° ENE 22:04:48 55° ESE
Nimbus 7 Rocket 4.5 21:59:14 10° NNE 22:05:19 85° WNW 22:11:24 10° SSW
Cosmos 1743 2.6 22:06:26 56° SSW 22:07:14 88° W 22:11:11 10° N
BREEZE-M DEB (TANK) 4.5 21:44:20 10° WNW 22:09:12 78° NNE 22:12:42 30° E
H-2A R/B 2.6 22:10:13 37° E 22:10:50 39° ENE 22:15:24 10° N
YAOGAN 6 2.9 22:12:13 56° SW 22:12:40 62° W 22:16:21 10° NNW
Lacrosse 5 rocket 2.6 22:10:07 10° WNW 22:13:14 26° SW 22:13:22 26° SW
Cosmos 2228 4.2 22:16:12 29° NE 22:16:12 29° NE 22:18:52 10° NNE
Envisat 4.3 22:11:14 14° SSW 22:15:03 37° W 22:19:45 10° NNW
GEOS 3 Rocket 3.7 22:10:31 10° NE 22:15:07 48° ESE 22:15:07 48° ESE
Cosmos 2098 Rocket 4.1 22:14:26 35° SSE 22:17:27 64° E 22:23:26 10° NNE
Tiangong 1 3.2 22:15:33 10° W 22:16:48 21° WSW 22:16:48 21° WSW
Cosmos 1937 Rocket 3.8 22:14:02 10° NNW 22:19:15 63° WSW 22:21:02 40° S
Cosmos 1842 3.4 22:19:14 10° N 22:22:45 65° NNE 22:22:45 65° NNE
Landsat 7 3.9 22:24:24 57° E 22:24:39 58° ENE 22:29:20 10° N
Cosmos 1697 Rocket 2.8 22:19:12 10° SSW 22:24:50 76° WNW 22:30:32 10° NNE
Cosmos 2058 Rocket 3.1 22:25:44 67° ENE 22:25:44 67° ENE 22:30:02 10° NNE
Cosmos 1802 Rocket 4.2 22:20:59 18° SSW 22:25:54 74° W 22:32:22 10° N
CZ-4 R/B 4.0 22:22:25 10° NNE 22:26:35 52° ENE 22:26:35 52° ENE
SL-16 R/B 3.7 22:29:58 21° ENE 22:29:58 21° ENE 22:32:28 10° NE
Cosmos 2233 Rocket 4.3 22:27:57 42° E 22:28:17 43° E 22:34:06 10° NNE
SPOT 1/Viking Rocket 3.7 22:28:06 48° S 22:29:32 72° WSW 22:34:47 10° NNW
DELTA 2 R/B (1) 4.4 22:25:07 10° W 22:29:48 33° SSW 22:29:48 33° SSW
ASTEX 1 3.8 22:26:00 10° N 22:30:58 62° W 22:33:04 34° SSW
NOAA 11 4.2 22:29:44 48° S 22:31:18 76° WSW 22:36:48 10° NNW
Cosmos 2084 4.5 22:29:38 10° NW 22:33:21 34° WSW 22:33:22 34° WSW
SL-08 R/B 4.4 22:30:44 37° S 22:33:26 90° W 22:39:40 10° N
SL-08 RB Rocket 3.7 22:35:12 72° SSW 22:35:36 79° WSW 22:40:17 10° NNW
Meteor 1-15 Rocket 4.2 22:35:41 59° SE 22:36:35 68° E 22:42:26 10° NNE
Cosmos 990 Rocket 4.3 22:31:33 10° NNW 22:36:45 60° WSW 22:37:48 49° SSW
Cosmos 1606 Rocket 4.1 22:38:13 46° WSW 22:39:08 56° WNW 22:43:30 10° N
Terra 2.0 22:40:15 57° ENE 22:40:15 57° ENE 22:44:42 10° N
CZ-4B R/B 3.3 22:38:53 10° NNE 22:43:40 82° WNW 22:44:01 75° SW
Cosmos 1980 Rocket 2.2 22:44:07 37° SSW 22:46:28 82° WNW 22:52:13 10° NNE
Cosmos 2016 Rocket 4.3 22:43:28 25° SSW 22:47:01 61° WNW 22:53:10 10° N
CARTOSAT-1 4.0 22:50:34 57° NNE 22:50:34 57° NNE 22:54:08 10° N
ARGOS 3.7 22:49:32 43° SW 22:50:46 52° W 22:56:02 10° NNW
Spot 4 4.2 22:54:42 54° NE 22:54:42 54° NE 22:58:49 10° N
Cosmos 1125 Rocket 3.4 22:54:11 10° NNW 22:59:15 84° NNW 22:59:15 84° NNW
RESURS DK-1 4.1 22:56:12 10° NW 22:59:18 25° W 22:59:18 25° W
Cosmos 1666 4.2 23:02:40 35° NW 23:02:40 35° NW 23:05:25 10° N
Cosmos 1763 Rocket 3.9 23:04:53 47° WSW 23:05:55 57° WNW 23:10:56 10° NNE
CZ-4C R/B 4.2 23:07:43 54° WNW 23:07:43 54° WNW 23:11:26 10° NNW
Tsikada Rocket 4.5 23:04:44 10° NNW 23:11:00 56° W 23:12:34 45° SW
DMSP B5D2-2 4.2 23:09:17 10° NNE 23:13:59 71° NNE 23:13:59 71° NNE
Cosmos 2263 Rocket 2.4 23:09:29 10° NNW 23:14:41 58° NE 23:14:41 58° NE
Cosmos 2322 Rocket 2.6 23:18:34 51° NE 23:18:34 51° NE 23:22:48 10° NNE
Cosmos 841 Rocket 4.4 23:24:39 39° W 23:25:47 45° WNW 23:30:49 10° N
USA 215 3.6 23:29:23 49° SW 23:29:23 49° SW 23:35:38 10° WNW
Lacrosse 5 3.7 23:28:09 10° WNW 23:30:48 21° W 23:30:48 21° W
GP-B 4.3 23:28:49 10° N 23:31:51 41° NNW 23:31:51 41° NNW
H-2A R/B 3.6 23:50:51 27° W 23:50:51 27° W 23:54:34 10° NW
Cosmos 540 Rocket 4.3 23:54:21 47° N 23:54:21 47° N 23:58:12 10° NNE
Cosmos 2278 Rocket 4.2 23:51:44 10° N 23:55:42 19° NE 23:56:46 18° ENE
